Weather History for MMTM - January, 2013

Change the Weather History Date:

Tuesday, January 29, 2013

  Actual Average Record
Temperature  
Mean Temperature 79 °F -  
Max Temperature 88 °F 74 °F 88 °F (2013)
Min Temperature 70 °F 61 °F 39 °F (2014)
Cooling Degree Days 14    
Growing Degree Days 29 (Base 50)    
Moisture  
Dew Point 70 °F    
Average Humidity 84    
Maximum Humidity 99    
Minimum Humidity 60    
Precipitation  
Precipitation 0.00 in - - ()
Sea Level Pressure  
Sea Level Pressure 29.84 in    
Wind  
Wind Speed 9 mph ()    
Max Wind Speed 23 mph    
Max Gust Speed -    
Visibility 5.3 miles    
Events      
Averages and records for this station are not official NWS values.
T = Trace of Precipitation, MM = Missing Value Source: Averaged Metar Reports

Daily Weather History Graph

Daily Weather History Graph

Search for Another Location

Airport or City:

Trip Planner

Search our weather history database for the weather conditions in past years. The results will help you decide how hot, cold, wet, or windy it might be!

Date:

Astronomy

Jan. 29, 2013 Rise Set
Actual Time 7:11 AM CST 6:18 PM CST
Civil Twilight 6:47 AM CST 6:41 PM CST
Nautical Twilight 6:20 AM CST 7:08 PM CST
Astronomical Twilight 5:54 AM CST 7:35 PM CST
Moon 8:47 PM CST (1/29) 8:33 AM CST (1/29)
Length of Visible Light 11h 54m
Length of Day
11h 07m
Waning Gibbous, 93% of the Moon is Illuminated
Jan 29
Waning Gibbous
Feb 3
Last Quarter
Feb 10
New
Feb 17
First Quarter
Feb 25
Full

Hourly Weather History & Observations

Time (CST) Temp. Heat Index Dew Point Humidity Pressure Visibility Wind Dir Wind Speed Gust Speed Precip Events Conditions
2:40 AM 72 °F - 72 °F 99% 29.96 in 6 mi SE 8.9 mph - -   Scattered Clouds
5:38 AM 72 °F - 71 °F 96% 29.96 in 6 mi SSW 4.5 mph - -   Mostly Cloudy
5:41 AM 71.6 °F - 69.8 °F 94% 29.96 in 5.0 mi South 5.8 mph - N/A   Scattered Clouds
6:43 AM 71.6 °F - 69.8 °F 94% 29.93 in 3.0 mi South 6.9 mph - N/A   Scattered Clouds
7:03 AM 71.6 °F - 69.8 °F 94% 29.94 in 4.0 mi SSW 8.1 mph - N/A   Overcast
7:47 AM 71.6 °F - 69.8 °F 94% 29.95 in 4.0 mi South 5.8 mph - N/A   Scattered Clouds
8:45 AM 72 °F - 72 °F 99% 29.98 in 11 mi SSW 4.5 mph - -   Mostly Cloudy
8:45 AM 73.4 °F - 69.8 °F 88% 29.94 in 4.0 mi SSW 6.9 mph - N/A   Partly Cloudy
9:41 AM 75.2 °F - 68.0 °F 78% 29.94 in 4.0 mi South 12.7 mph - N/A   Scattered Clouds
10:47 AM 77.0 °F - 68.0 °F 74% 29.92 in 4.0 mi South 12.7 mph - N/A   Mostly Cloudy
11:43 AM 78.8 °F - 68.0 °F 69% 29.89 in 4.0 mi South 11.5 mph - N/A   Mostly Cloudy
11:45 AM 80 °F - 72 °F 70% 29.94 in 12 mi SSE 6.7 mph - -   Partly Cloudy
12:41 PM 78.8 °F - 69.8 °F 74% 29.84 in 4.0 mi ESE 11.5 mph - N/A   Scattered Clouds
1:41 PM 80.6 °F 83.9 °F 69.8 °F 70% 29.79 in 4.0 mi SE 18.4 mph - N/A   Scattered Clouds
2:40 PM 86 °F - 74 °F 60% 29.79 in 12 mi ESE 11.2 mph - -  
2:49 PM 78.8 °F - 69.8 °F 74% 29.75 in 4.0 mi SE 18.4 mph - N/A   Clear
3:40 PM 78.8 °F - 69.8 °F 74% 29.73 in 4.0 mi SE 20.7 mph - N/A   Clear
4:43 PM 77.0 °F - 69.8 °F 78% 29.71 in 4.0 mi SSE 23.0 mph - N/A   Clear
5:40 PM 79 °F - 72 °F 73% 29.74 in 11 mi SE 13.4 mph - -   Haze
5:48 PM 75.2 °F - 69.8 °F 83% 29.68 in 4.0 mi SE 20.7 mph - N/A   Clear
6:52 PM 73.4 °F - 68.0 °F 83% 29.71 in 3.0 mi SE 17.3 mph - N/A   Haze
7:42 PM 73.4 °F - 68.0 °F 83% 29.73 in 4.0 mi SSE 18.4 mph - N/A   Clear
8:45 PM 73 °F - 72 °F 98% 29.80 in 6 mi SE 6.7 mph - -   Scattered Clouds
8:47 PM 73.4 °F - 69.8 °F 88% 29.76 in 4.0 mi SSE 12.7 mph - N/A   Clear
9:44 PM 71.6 °F - 69.8 °F 94% 29.76 in 3.0 mi SE 6.9 mph - N/A   Haze
10:43 PM 71.6 °F - 69.8 °F 94% 29.77 in 4.0 mi Calm Calm - N/A   Scattered Clouds
11:40 PM 73 °F - 72 °F 98% 29.78 in 6 mi ESE 8.9 mph - -   Mostly Cloudy